Theta_e
285 286 285 286 287 289 289 288 288 290 292 292 292 293 294 294 295 295 296 297 298 299 300 301 301 301 301
284 284 284 286 287 286 286 287 288 288 290 291 292 292 293 293 293 294 295 295 296 296 297 298 299 299 300
282 284 285 286 286 286 285 286 286 288 289 290 290 291 291 292 293 293 293 293 293 294 294 295 296 297 298
283 284 284 286 285 283 283 285 284 286 287 288 289 290 290 291 290 290 290 291 292 292 293 293 293 294 295
283 284 283 283 282 283 282 283 284 286 285 285 286 286 287 288 288 288 288 290 291 292 292 293 293 294 295
283 282 282 282 283 282 282 281 279 286 284 283 286 284 285 286 287 288 289 290 290 291 292 292 292 293 294
283 282 281 282 283 282 282 281 280 284 283 281 284 282 285 285 287 287 288 289 290 290 291 291 291 292 293
284 283 284 285 285 284 283 282 282 283 283 277 283 281 283 284 286 287 287 288 289 289 290 290 290 290 291
286 286 286 286 285 283 281 279 276 279 282 279 281 281 282 282 284 285 286 287 288 288 289 289 289 289 289
282 282 282 282 283 282 280 277 276 276 282 278 279 279 277 282 283 283 283 284 285 286 287 287 288 286 286
279 280 280 281 281 281 281 279 276 276 281 280 278 278 277 277 280 282 282 282 282 283 284 285 285 285 283
278 278 278 279 280 280 280 279 280 278 280 279 276 276 276 275 275 280 282 283 283 281 282 284 284 285 286
277 277 278 278 278 278 279 279 278 278 278 278 277 277 277 275 275 277 278 281 282 281 281 281 281 282 282
276 277 277 277 277 278 276 277 276 277 281 280 278 277 276 277 277 276 279 277 281 281 282 282 282 282 282
275 275 275 276 276 277 276 276 275 276 277 280 281 281 280 278 276 278 279 279 281 281 280 279 281 283 283
274 274 274 274 274 276 278 276 275 276 277 279 279 279 281 282 282 278 279 280 281 282 281 279 280 283 285
273 273 273 274 276 275 276 276 276 278 279 280 281 279 276 276 282 287 283 283 283 282 284 283 281 283 285
Wind_Speed
2 2 4 8 9 8 8 9 9 18 22 22 21 22 23 23 24 24 25 25 26 26 27 26 27 26 26
3 3 5 8 10 10 8 8 11 16 22 22 23 23 22 22 23 23 23 24 25 26 27 28 28 28 29
5 3 4 5 9 9 8 11 9 18 19 21 20 20 21 22 24 24 25 27 27 27 28 28 28 28 29
6 7 6 7 7 8 10 9 10 11 15 16 19 20 24 24 25 25 25 25 26 27 27 27 27 28 27
6 7 7 8 10 9 10 10 11 11 10 9 11 11 13 18 19 22 23 24 26 26 26 27 26 27 26
6 8 10 10 9 9 10 10 11 7 8 12 12 12 12 11 19 24 27 27 26 26 26 27 26 27 27
10 10 11 11 9 11 11 11 11 12 13 13 11 12 11 11 22 26 27 27 26 25 24 23 23 23 24
9 10 10 10 9 9 12 13 12 12 10 10 10 11 12 11 23 26 26 25 25 24 24 24 24 25 25
12 14 16 18 14 9 8 9 9 11 10 9 9 12 12 12 11 17 20 22 25 27 26 25 25 26 19
8 11 11 10 13 7 6 8 8 8 2 4 10 10 7 7 7 10 12 20 24 26 26 26 26 12 11
8 7 7 7 6 6 7 7 8 9 12 8 7 10 8 10 10 10 11 13 12 14 21 23 22 18 10
6 7 7 8 8 8 11 11 10 14 16 11 8 9 10 12 14 10 10 11 11 12 11 15 20 21 22
6 7 7 8 10 10 10 12 12 13 12 13 11 12 10 11 13 15 14 9 11 11 10 10 11 10 11
6 8 7 6 9 8 9 9 10 10 7 10 12 12 11 12 12 15 13 9 10 10 10 10 10 11 12
7 7 8 8 9 8 8 9 9 11 12 10 9 12 12 15 14 12 13 13 11 12 11 12 11 11 12
7 7 8 9 9 9 8 9 10 10 11 11 11 11 9 10 22 14 12 13 12 12 11 12 13 10 11
7 8 8 8 11 9 9 9 10 10 10 10 10 10 12 14 8 14 11 12 13 13 11 11 13 13 10
Wind_Direction
236 272 283 290 297 299 298 297 295 297 301 304 301 296 296 295 292 290 289 290 285 281 279 280 278 280 282
283 269 268 295 294 294 293 294 298 298 300 301 301 300 297 297 293 289 286 285 287 287 286 282 281 278 277
285 272 275 279 296 294 297 299 296 293 296 298 297 296 294 292 295 295 292 288 286 283 281 280 275 274 274
273 279 282 308 294 297 304 303 302 298 295 294 291 291 291 293 293 288 286 285 282 281 280 277 274 273 271
280 294 308 301 309 310 298 304 307 293 293 297 297 295 287 290 287 287 285 282 281 279 278 276 275 275 273
295 298 304 305 304 302 303 311 315 289 300 298 292 288 285 285 286 284 283 286 286 284 283 280 278 274 270
308 303 298 298 295 293 298 298 292 292 297 294 291 284 282 279 282 285 289 290 288 287 283 280 276 274 275
291 286 282 284 284 286 296 294 287 285 291 284 294 291 295 287 283 284 284 286 289 290 288 287 289 283 279
301 303 304 305 306 304 295 303 301 297 298 275 285 302 298 286 275 271 275 283 289 291 290 289 285 282 279
309 309 314 306 307 296 288 285 295 297 348 273 300 315 303 287 281 285 283 282 285 285 286 287 286 281 274
314 310 311 308 305 300 289 276 278 266 276 293 289 294 274 294 289 284 284 284 283 283 284 284 283 278 273
310 308 311 311 310 306 297 284 268 259 277 278 270 273 276 282 288 290 286 286 282 280 284 281 279 276 269
306 301 300 297 297 294 288 280 269 263 260 259 254 267 262 269 276 288 291 290 286 277 272 270 273 274 276
304 303 303 302 299 298 295 300 299 294 275 256 246 250 263 262 268 275 282 279 291 280 278 273 269 260 255
312 312 307 307 299 299 286 290 282 297 303 299 277 259 252 262 274 270 278 278 271 277 279 276 268 261 254
308 303 299 300 299 298 294 292 289 290 291 297 302 299 280 250 234 267 269 273 276 273 263 267 274 266 255
298 295 292 289 302 297 293 291 290 289 290 291 290 294 301 301 294 267 282 281 292 289 279 271 274 278 269